EW3101 Weather Reports


Display with metric or nautical units.
time (UTC)temp
F
wind
direction
speed
MPH
gust
MPH
rain 1hr
in
rain 24hr
in
rain mn
in
humidity
%
barometer
mb
20260505054216 59 23 17.0 21.0 0.00 0.00 0.00 43 1007.9
20260505053216 59 23 14.0 18.0 0.00 0.00 0.00 43 1007.4
20260505052216 60 0 13.0 16.0 0.00 0.00 0.00 43 1007.5
20260505051216 60 23 16.0 20.0 0.00 0.00 0.00 41 1007.1
20260505050215 61 23 19.0 22.0 0.00 0.00 0.00 40 1007.4
20260505041216 66 23 16.0 23.0 0.00 0.00 0.00 37 1006.4
20260505040216 66 23 16.0 24.0 0.00 0.00 0.00 36 1006.3
20260505035216 67 23 10.0 12.0 0.00 0.00 0.00 37 1006.4
20260505034216 67 23 11.0 16.0 0.00 0.00 0.00 36 1006.1
20260505033216 68 0 12.0 20.0 0.00 0.00 0.00 36 1005.9
20260505032216 69 23 15.0 20.0 0.00 0.00 0.00 35 1005.6
20260505031216 69 23 16.0 22.0 0.00 0.00 0.00 34 1005.2
20260505030216 70 23 16.0 22.0 0.00 0.00 0.00 35 1005.2
20260505025216 70 23 12.0 16.0 0.00 0.00 0.00 35 1004.8
20260505024216 71 23 10.0 13.0 0.00 0.00 0.00 36 1004.7
20260505023216 72 0 10.0 12.0 0.00 0.00 0.00 37 1004.4
20260505022236 73 23 7.0 9.0 0.00 0.00 0.00 36 1004.3
20260505021236 75 23 8.0 10.0 0.00 0.00 0.00 36 1004.2
20260505020216 75 23 15.0 20.0 0.00 0.00 0.00 36 1004.1
20260505015216 75 23 12.0 16.0 0.00 0.00 0.00 37 1003.7
20260505014236 75 23 8.0 12.0 0.00 0.00 0.00 40 1003.5
20260505013216 73 338 8.0 11.0 0.00 0.00 0.00 55 1002.8
20260505012236 75 0.0 0.0 0.00 0.00 0.00 55 1002.7
20260505011256 76 0.0 0.0 0.00 0.00 0.00 52 1002.4
20260505010216 77 203 1.0 2.0 0.00 0.00 0.00 48 1002.3
20260505005216 78 203 4.0 5.0 0.00 0.00 0.00 46 1002.2
20260505004216 78 203 5.0 6.0 0.00 0.00 0.00 45 1002.2
20260505003216 79 203 4.0 5.0 0.00 0.00 0.00 44 1002.0
20260505002236 80 203 4.0 5.0 0.00 0.00 0.00 43 1002.3
20260505001216 81 203 6.0 7.0 0.00 0.00 0.00 41 1002.2
20260505000235 82 203 6.0 9.0 0.00 0.00 0.00 38 1002.3
20260504235215 83 203 6.0 7.0 0.00 0.00 0.00 35 1002.3
20260504234215 84 203 4.0 6.0 0.00 0.00 0.00 34 1002.4
20260504233216 84 203 5.0 7.0 0.00 0.00 0.00 32 1002.3
20260504232236 85 203 5.0 7.0 0.00 0.00 0.00 31 1002.2
20260504231216 85 225 4.0 6.0 0.00 0.00 0.00 32 1002.2
20260504230256 85 225 6.0 7.0 0.00 0.00 0.00 31 1002.1
20260504225216 85 203 6.0 8.0 0.00 0.00 0.00 33 1002.0
20260504224215 86 203 7.0 9.0 0.00 0.00 0.00 31 1002.0
20260504223215 86 203 4.0 6.0 0.00 0.00 0.00 33 1002.0
20260504222215 86 203 5.0 7.0 0.00 0.00 0.00 34 1002.0
20260504221236 85 180 6.0 8.0 0.00 0.00 0.00 34 1002.0
20260504220215 85 180 7.0 11.0 0.00 0.00 0.00 34 1001.8
20260504215215 85 180 7.0 10.0 0.00 0.00 0.00 34 1002.0
20260504214236 86 180 8.0 13.0 0.00 0.00 0.00 34 1002.1
20260504213215 86 203 8.0 10.0 0.00 0.00 0.00 31 1002.2
20260504212215 86 158 7.0 12.0 0.00 0.00 0.00 32 1002.2
20260504211215 86 68 4.0 7.0 0.00 0.00 0.00 32 1002.4
20260504210215 88 135 5.0 8.0 0.00 0.00 0.00 30 1002.4
20260504205215 88 225 5.0 6.0 0.00 0.00 0.00 25 1002.5
20260504204215 88 270 4.0 7.0 0.00 0.00 0.00 26 1002.5
20260504203215 87 225 7.0 9.0 0.00 0.00 0.00 27 1002.6
20260504202215 87 293 1.0 2.0 0.00 0.00 0.00 32 1002.7
20260504201215 87 203 5.0 6.0 0.00 0.00 0.00 27 1002.8
20260504200217 87 248 3.0 4.0 0.00 0.00 0.00 25 1003.0
20260504195217 87 203 3.0 6.0 0.00 0.00 0.00 27 1003.1
20260504194217 87 203 5.0 8.0 0.00 0.00 0.00 31 1003.1
20260504193218 87 203 5.0 8.0 0.00 0.00 0.00 34 1003.1
20260504192337 87 225 5.0 8.0 0.00 0.00 0.00 28 1003.1
20260504191217 86 225 3.0 5.0 0.00 0.00 0.00 31 1003.1
20260504190217 85 225 5.0 7.0 0.00 0.00 0.00 28 1003.0
20260504185217 85 293 4.0 7.0 0.00 0.00 0.00 31 1003.1
20260504184217 85 225 5.0 8.0 0.00 0.00 0.00 35 1003.1
20260504183217 85 0.0 3.0 0.00 0.00 0.00 36 1003.2
20260504182217 85 180 4.0 6.0 0.00 0.00 0.00 38 1003.5
20260504181217 84 225 5.0 8.0 0.00 0.00 0.00 36 1003.3
20260504180217 84 203 2.0 5.0 0.00 0.00 0.00 37 1003.4
20260504175217 83 203 4.0 7.0 0.00 0.00 0.00 40 1003.4
20260504174217 82 180 5.0 7.0 0.00 0.00 0.00 41 1003.6
20260504173217 82 225 6.0 9.0 0.00 0.00 0.00 44 1003.7
20260504172237 81 248 4.0 8.0 0.00 0.00 0.00 43 1003.7
20260504171217 80 225 3.0 4.0 0.00 0.00 0.00 42 1003.7
20260504170217 80 225 4.0 7.0 0.00 0.00 0.00 46 1003.8
20260504160237 76 225 5.0 7.0 0.00 0.00 0.00 46 1003.9
20260504150217 72 225 7.0 10.0 0.00 0.00 0.00 51 1003.4
20260504141217 69 203 12.0 15.0 0.00 0.00 0.00 55 1003.4
20260504140217 68 225 8.0 12.0 0.00 0.00 0.00 56 1003.6
20260504130217 66 203 8.0 10.0 0.00 0.00 0.00 58 1003.5
20260504120216 62 180 6.0 8.0 0.00 0.00 0.00 62 1002.8
20260504110216 59 180 5.0 7.0 0.00 0.00 0.00 66 1003.1
20260504100216 56 180 5.0 6.0 0.00 0.00 0.00 73 1003.6
20260504081316 55 0.0 0.0 0.00 0.00 0.00 74 1005.1
20260504080316 55 0.0 0.0 0.00 0.00 0.00 73 1005.1
20260504070336 59 0.0 0.0 0.00 0.00 0.00 66 1006.1